#datetime,building,power
2023-08-17T00:00:00,mcc,48.82
2023-08-17T00:01:00,mcc,49.55
2023-08-17T00:02:00,mcc,49.05
2023-08-17T00:03:00,mcc,48.72
2023-08-17T00:04:00,mcc,53.05
2023-08-17T00:05:00,mcc,55.41
2023-08-17T00:06:00,mcc,48.09
2023-08-17T00:07:00,mcc,49.77
2023-08-17T00:08:00,mcc,48.85
2023-08-17T00:09:00,mcc,48.40
2023-08-17T00:10:00,mcc,47.70
2023-08-17T00:11:00,mcc,46.71
2023-08-17T00:12:00,mcc,47.50
2023-08-17T00:13:00,mcc,57.39
2023-08-17T00:14:00,mcc,50.45
2023-08-17T00:15:00,mcc,48.51
2023-08-17T00:16:00,mcc,47.30
2023-08-17T00:17:00,mcc,47.59
2023-08-17T00:18:00,mcc,46.97
2023-08-17T00:19:00,mcc,48.30
2023-08-17T00:20:00,mcc,50.05
2023-08-17T00:21:00,mcc,49.75
2023-08-17T00:22:00,mcc,46.59
2023-08-17T00:23:00,mcc,46.24
2023-08-17T00:24:00,mcc,47.16
2023-08-17T00:25:00,mcc,47.23
2023-08-17T00:26:00,mcc,48.18
2023-08-17T00:27:00,mcc,46.77
2023-08-17T00:28:00,mcc,49.81
2023-08-17T00:29:00,mcc,48.60
2023-08-17T00:30:00,mcc,44.73
2023-08-17T00:31:00,mcc,44.75
2023-08-17T00:32:00,mcc,44.26
2023-08-17T00:33:00,mcc,44.83
2023-08-17T00:34:00,mcc,44.18
2023-08-17T00:35:00,mcc,45.87
2023-08-17T00:36:00,mcc,46.03
2023-08-17T00:37:00,mcc,43.31
2023-08-17T00:38:00,mcc,42.89
2023-08-17T00:39:00,mcc,42.24
2023-08-17T00:40:00,mcc,41.84
2023-08-17T00:41:00,mcc,39.09
2023-08-17T00:42:00,mcc,38.66
2023-08-17T00:43:00,mcc,39.84
2023-08-17T00:44:00,mcc,40.34
2023-08-17T00:45:00,mcc,40.84
2023-08-17T00:46:00,mcc,41.60
2023-08-17T00:47:00,mcc,41.18
2023-08-17T00:48:00,mcc,41.81
2023-08-17T00:49:00,mcc,44.09
2023-08-17T00:50:00,mcc,43.14
2023-08-17T00:51:00,mcc,51.41
2023-08-17T00:52:00,mcc,40.40
2023-08-17T00:53:00,mcc,39.36
2023-08-17T00:54:00,mcc,39.84
2023-08-17T00:55:00,mcc,41.20
2023-08-17T00:56:00,mcc,40.78
2023-08-17T00:57:00,mcc,38.87
2023-08-17T00:58:00,mcc,38.74
2023-08-17T00:59:00,mcc,40.01
2023-08-17T01:00:00,mcc,39.16
2023-08-17T01:01:00,mcc,40.48
2023-08-17T01:02:00,mcc,40.17
2023-08-17T01:03:00,mcc,39.24
2023-08-17T01:04:00,mcc,38.48
2023-08-17T01:05:00,mcc,38.97
2023-08-17T01:06:00,mcc,40.84
2023-08-17T01:07:00,mcc,40.89
2023-08-17T01:08:00,mcc,40.02
2023-08-17T01:09:00,mcc,39.10
2023-08-17T01:10:00,mcc,47.77
2023-08-17T01:11:00,mcc,39.66
2023-08-17T01:12:00,mcc,39.92
2023-08-17T01:13:00,mcc,38.74
2023-08-17T01:14:00,mcc,38.58
2023-08-17T01:15:00,mcc,37.23
2023-08-17T01:16:00,mcc,36.45
2023-08-17T01:17:00,mcc,36.57
2023-08-17T01:18:00,mcc,37.02
2023-08-17T01:19:00,mcc,38.11
2023-08-17T01:20:00,mcc,37.11
2023-08-17T01:21:00,mcc,39.23
2023-08-17T01:22:00,mcc,37.07
2023-08-17T01:23:00,mcc,38.66
2023-08-17T01:24:00,mcc,38.90
2023-08-17T01:25:00,mcc,40.17
2023-08-17T01:26:00,mcc,39.12
2023-08-17T01:27:00,mcc,39.09
2023-08-17T01:28:00,mcc,47.87
2023-08-17T01:29:00,mcc,40.77
2023-08-17T01:30:00,mcc,41.23
2023-08-17T01:31:00,mcc,41.79
2023-08-17T01:32:00,mcc,39.34
2023-08-17T01:33:00,mcc,38.26
2023-08-17T01:34:00,mcc,37.41
2023-08-17T01:35:00,mcc,37.31
2023-08-17T01:36:00,mcc,38.91
2023-08-17T01:37:00,mcc,35.75
2023-08-17T01:38:00,mcc,35.33
2023-08-17T01:39:00,mcc,35.90
2023-08-17T01:40:00,mcc,37.82
2023-08-17T01:41:00,mcc,40.38
2023-08-17T01:42:00,mcc,40.77
2023-08-17T01:43:00,mcc,41.11
2023-08-17T01:44:00,mcc,42.40
2023-08-17T01:45:00,mcc,41.69
2023-08-17T01:46:00,mcc,42.39
2023-08-17T01:47:00,mcc,41.22
2023-08-17T01:48:00,mcc,40.88
2023-08-17T01:49:00,mcc,39.43
2023-08-17T01:50:00,mcc,39.16
2023-08-17T01:51:00,mcc,37.09
2023-08-17T01:52:00,mcc,36.34
2023-08-17T01:53:00,mcc,43.73
2023-08-17T01:54:00,mcc,44.32
2023-08-17T01:55:00,mcc,44.16
2023-08-17T01:56:00,mcc,45.28
2023-08-17T01:57:00,mcc,36.71
2023-08-17T01:58:00,mcc,37.82
2023-08-17T01:59:00,mcc,37.96
2023-08-17T02:00:00,mcc,38.97
2023-08-17T02:01:00,mcc,39.54
2023-08-17T02:02:00,mcc,39.39
2023-08-17T02:03:00,mcc,39.27
2023-08-17T02:04:00,mcc,46.99
2023-08-17T02:05:00,mcc,38.86
2023-08-17T02:06:00,mcc,38.51
2023-08-17T02:07:00,mcc,38.45
2023-08-17T02:08:00,mcc,38.49
2023-08-17T02:09:00,mcc,38.12
2023-08-17T02:10:00,mcc,38.29
2023-08-17T02:11:00,mcc,36.90
2023-08-17T02:12:00,mcc,38.16
2023-08-17T02:13:00,mcc,38.38
2023-08-17T02:14:00,mcc,38.36
2023-08-17T02:15:00,mcc,37.27
2023-08-17T02:16:00,mcc,39.55
2023-08-17T02:17:00,mcc,41.26
2023-08-17T02:18:00,mcc,40.00
2023-08-17T02:19:00,mcc,41.08
2023-08-17T02:20:00,mcc,40.09
2023-08-17T02:21:00,mcc,41.56
2023-08-17T02:22:00,mcc,49.73
2023-08-17T02:23:00,mcc,42.02
2023-08-17T02:24:00,mcc,43.37
2023-08-17T02:25:00,mcc,41.43
2023-08-17T02:26:00,mcc,40.01
2023-08-17T02:27:00,mcc,39.87
2023-08-17T02:28:00,mcc,40.64
2023-08-17T02:29:00,mcc,40.65
2023-08-17T02:30:00,mcc,41.09
2023-08-17T02:31:00,mcc,40.72
2023-08-17T02:32:00,mcc,40.60
2023-08-17T02:33:00,mcc,41.17
2023-08-17T02:34:00,mcc,40.07
2023-08-17T02:35:00,mcc,38.08
2023-08-17T02:36:00,mcc,38.91
2023-08-17T02:37:00,mcc,39.81
2023-08-17T02:38:00,mcc,39.55
2023-08-17T02:39:00,mcc,40.24
2023-08-17T02:40:00,mcc,39.86
2023-08-17T02:41:00,mcc,48.01
2023-08-17T02:42:00,mcc,39.93
2023-08-17T02:43:00,mcc,39.49
2023-08-17T02:44:00,mcc,40.51
2023-08-17T02:45:00,mcc,39.29
2023-08-17T02:46:00,mcc,40.16
2023-08-17T02:47:00,mcc,38.91
2023-08-17T02:48:00,mcc,37.49
2023-08-17T02:49:00,mcc,50.18
2023-08-17T02:50:00,mcc,49.05
2023-08-17T02:51:00,mcc,51.01
2023-08-17T02:52:00,mcc,42.61
2023-08-17T02:53:00,mcc,41.21
2023-08-17T02:54:00,mcc,40.78
2023-08-17T02:55:00,mcc,41.28
2023-08-17T02:56:00,mcc,41.04
2023-08-17T02:57:00,mcc,41.01
2023-08-17T02:58:00,mcc,40.50
2023-08-17T02:59:00,mcc,47.05
2023-08-17T03:00:00,mcc,40.37
2023-08-17T03:01:00,mcc,40.58
2023-08-17T03:02:00,mcc,41.01
2023-08-17T03:03:00,mcc,41.01
2023-08-17T03:04:00,mcc,37.40
2023-08-17T03:05:00,mcc,37.30
2023-08-17T03:06:00,mcc,37.51
2023-08-17T03:07:00,mcc,38.04
2023-08-17T03:08:00,mcc,36.12
2023-08-17T03:09:00,mcc,36.28
2023-08-17T03:10:00,mcc,35.83
2023-08-17T03:11:00,mcc,35.82
2023-08-17T03:12:00,mcc,37.92
2023-08-17T03:13:00,mcc,37.15
2023-08-17T03:14:00,mcc,36.74
2023-08-17T03:15:00,mcc,36.09
2023-08-17T03:16:00,mcc,38.05
2023-08-17T03:17:00,mcc,38.14
2023-08-17T03:18:00,mcc,46.18
2023-08-17T03:19:00,mcc,39.14
2023-08-17T03:20:00,mcc,40.18
2023-08-17T03:21:00,mcc,40.05
2023-08-17T03:22:00,mcc,40.62
2023-08-17T03:23:00,mcc,42.03
2023-08-17T03:24:00,mcc,41.05
2023-08-17T03:25:00,mcc,43.20
2023-08-17T03:26:00,mcc,43.41
2023-08-17T03:27:00,mcc,40.40
2023-08-17T03:28:00,mcc,40.49
2023-08-17T03:29:00,mcc,42.66
2023-08-17T03:30:00,mcc,43.14
2023-08-17T03:31:00,mcc,43.14
2023-08-17T03:32:00,mcc,42.96
2023-08-17T03:33:00,mcc,39.69
2023-08-17T03:34:00,mcc,38.66
2023-08-17T03:35:00,mcc,39.95
2023-08-17T03:36:00,mcc,42.13
2023-08-17T03:37:00,mcc,49.50
2023-08-17T03:38:00,mcc,40.31
2023-08-17T03:39:00,mcc,39.19
2023-08-17T03:40:00,mcc,39.40
2023-08-17T03:41:00,mcc,38.45
2023-08-17T03:42:00,mcc,38.71
2023-08-17T03:43:00,mcc,38.57
2023-08-17T03:44:00,mcc,37.81
2023-08-17T03:45:00,mcc,37.05
2023-08-17T03:46:00,mcc,37.74
2023-08-17T03:47:00,mcc,39.31
2023-08-17T03:48:00,mcc,38.15
2023-08-17T03:49:00,mcc,39.02
2023-08-17T03:50:00,mcc,39.39
2023-08-17T03:51:00,mcc,38.36
2023-08-17T03:52:00,mcc,39.00
2023-08-17T03:53:00,mcc,39.18
2023-08-17T03:54:00,mcc,39.94
2023-08-17T03:55:00,mcc,39.36
2023-08-17T03:56:00,mcc,40.80
2023-08-17T03:57:00,mcc,41.12
2023-08-17T03:58:00,mcc,40.89
2023-08-17T03:59:00,mcc,40.77
2023-08-17T04:00:00,mcc,41.98
2023-08-17T04:01:00,mcc,41.91
2023-08-17T04:02:00,mcc,41.58
2023-08-17T04:03:00,mcc,41.23
2023-08-17T04:04:00,mcc,40.82
2023-08-17T04:05:00,mcc,40.81
2023-08-17T04:06:00,mcc,39.12
2023-08-17T04:07:00,mcc,39.78
2023-08-17T04:08:00,mcc,39.47
2023-08-17T04:09:00,mcc,39.78
2023-08-17T04:10:00,mcc,40.74
2023-08-17T04:11:00,mcc,41.97
2023-08-17T04:12:00,mcc,40.31
2023-08-17T04:13:00,mcc,39.02
2023-08-17T04:14:00,mcc,38.61
2023-08-17T04:15:00,mcc,37.33
2023-08-17T04:16:00,mcc,39.04
2023-08-17T04:17:00,mcc,37.28
2023-08-17T04:18:00,mcc,38.19
2023-08-17T04:19:00,mcc,37.14
2023-08-17T04:20:00,mcc,36.80
2023-08-17T04:21:00,mcc,38.33
2023-08-17T04:22:00,mcc,37.82
2023-08-17T04:23:00,mcc,38.08
2023-08-17T04:24:00,mcc,42.01
2023-08-17T04:25:00,mcc,42.39
2023-08-17T04:26:00,mcc,41.40
2023-08-17T04:27:00,mcc,40.61
2023-08-17T04:28:00,mcc,41.93
2023-08-17T04:29:00,mcc,42.22
2023-08-17T04:30:00,mcc,41.93
2023-08-17T04:31:00,mcc,43.49
2023-08-17T04:32:00,mcc,42.63
2023-08-17T04:33:00,mcc,48.66
2023-08-17T04:34:00,mcc,40.37
2023-08-17T04:35:00,mcc,41.56
2023-08-17T04:36:00,mcc,40.23
2023-08-17T04:37:00,mcc,38.98
2023-08-17T04:38:00,mcc,39.95
2023-08-17T04:39:00,mcc,37.76
2023-08-17T04:40:00,mcc,37.69
2023-08-17T04:41:00,mcc,39.51
2023-08-17T04:42:00,mcc,41.46
2023-08-17T04:43:00,mcc,42.81
2023-08-17T04:44:00,mcc,43.20
2023-08-17T04:45:00,mcc,43.20
2023-08-17T04:46:00,mcc,42.03
2023-08-17T04:47:00,mcc,40.76
2023-08-17T04:48:00,mcc,44.80
2023-08-17T04:49:00,mcc,45.04
2023-08-17T04:50:00,mcc,43.14
2023-08-17T04:51:00,mcc,42.22
2023-08-17T04:52:00,mcc,50.44
2023-08-17T04:53:00,mcc,42.35
2023-08-17T04:54:00,mcc,44.22
2023-08-17T04:55:00,mcc,45.22
2023-08-17T04:56:00,mcc,45.91
2023-08-17T04:57:00,mcc,40.43
2023-08-17T04:58:00,mcc,40.53
2023-08-17T04:59:00,mcc,40.90
2023-08-17T05:00:00,mcc,40.66
2023-08-17T05:01:00,mcc,41.75
2023-08-17T05:02:00,mcc,38.95
2023-08-17T05:03:00,mcc,39.37
2023-08-17T05:04:00,mcc,38.26
2023-08-17T05:05:00,mcc,39.17
2023-08-17T05:06:00,mcc,39.55
2023-08-17T05:07:00,mcc,39.52
2023-08-17T05:08:00,mcc,39.08
2023-08-17T05:09:00,mcc,39.86
2023-08-17T05:10:00,mcc,39.28
2023-08-17T05:11:00,mcc,40.26
2023-08-17T05:12:00,mcc,39.95
2023-08-17T05:13:00,mcc,38.03
2023-08-17T05:14:00,mcc,38.87
2023-08-17T05:15:00,mcc,38.27
2023-08-17T05:16:00,mcc,37.51
2023-08-17T05:17:00,mcc,36.84
2023-08-17T05:18:00,mcc,36.58
2023-08-17T05:19:00,mcc,36.20
2023-08-17T05:20:00,mcc,36.13
2023-08-17T05:21:00,mcc,36.91
2023-08-17T05:22:00,mcc,36.89
2023-08-17T05:23:00,mcc,39.46
2023-08-17T05:24:00,mcc,42.30
2023-08-17T05:25:00,mcc,41.42
2023-08-17T05:26:00,mcc,40.90
2023-08-17T05:27:00,mcc,40.09
2023-08-17T05:28:00,mcc,41.39
2023-08-17T05:29:00,mcc,47.35
2023-08-17T05:30:00,mcc,38.14
2023-08-17T05:31:00,mcc,38.13
2023-08-17T05:32:00,mcc,38.11
2023-08-17T05:33:00,mcc,37.00
2023-08-17T05:34:00,mcc,37.13
2023-08-17T05:35:00,mcc,37.13
2023-08-17T05:36:00,mcc,37.12
2023-08-17T05:37:00,mcc,39.13
2023-08-17T05:38:00,mcc,38.29
2023-08-17T05:39:00,mcc,39.91
2023-08-17T05:40:00,mcc,40.27
2023-08-17T05:41:00,mcc,40.31
2023-08-17T05:42:00,mcc,38.84
2023-08-17T05:43:00,mcc,39.56
2023-08-17T05:44:00,mcc,39.44
2023-08-17T05:45:00,mcc,39.55
2023-08-17T05:46:00,mcc,39.94
2023-08-17T05:47:00,mcc,37.90
2023-08-17T05:48:00,mcc,37.28
2023-08-17T05:49:00,mcc,38.37
2023-08-17T05:50:00,mcc,38.26
2023-08-17T05:51:00,mcc,36.14
2023-08-17T05:52:00,mcc,36.36
2023-08-17T05:53:00,mcc,37.43
2023-08-17T05:54:00,mcc,38.04
2023-08-17T05:55:00,mcc,39.40
2023-08-17T05:56:00,mcc,37.89
2023-08-17T05:57:00,mcc,37.50
2023-08-17T05:58:00,mcc,36.47
2023-08-17T05:59:00,mcc,34.71
2023-08-17T06:00:00,mcc,34.62
2023-08-17T06:01:00,mcc,38.39
2023-08-17T06:02:00,mcc,37.22
2023-08-17T06:03:00,mcc,39.89
2023-08-17T06:04:00,mcc,38.58
2023-08-17T06:05:00,mcc,40.54
2023-08-17T06:06:00,mcc,40.38
2023-08-17T06:07:00,mcc,49.54
2023-08-17T06:08:00,mcc,41.79
2023-08-17T06:09:00,mcc,41.42
2023-08-17T06:10:00,mcc,41.24
2023-08-17T06:11:00,mcc,40.83
2023-08-17T06:12:00,mcc,40.78
2023-08-17T06:13:00,mcc,41.31
2023-08-17T06:14:00,mcc,42.40
2023-08-17T06:15:00,mcc,42.14
2023-08-17T06:16:00,mcc,40.88
2023-08-17T06:17:00,mcc,43.32
2023-08-17T06:18:00,mcc,42.79
2023-08-17T06:19:00,mcc,43.07
2023-08-17T06:20:00,mcc,44.91
2023-08-17T06:21:00,mcc,53.09
2023-08-17T06:22:00,mcc,63.80
2023-08-17T06:23:00,mcc,65.44
2023-08-17T06:24:00,mcc,65.33
2023-08-17T06:25:00,mcc,78.89
2023-08-17T06:26:00,mcc,69.84
2023-08-17T06:27:00,mcc,70.68
2023-08-17T06:28:00,mcc,69.80
2023-08-17T06:29:00,mcc,65.63
2023-08-17T06:30:00,mcc,67.27
2023-08-17T06:31:00,mcc,68.71
2023-08-17T06:32:00,mcc,69.52
2023-08-17T06:33:00,mcc,69.65
2023-08-17T06:34:00,mcc,67.64
2023-08-17T06:35:00,mcc,57.30
2023-08-17T06:36:00,mcc,57.47
2023-08-17T06:37:00,mcc,58.23
2023-08-17T06:38:00,mcc,57.88
2023-08-17T06:39:00,mcc,58.34
2023-08-17T06:40:00,mcc,58.71
2023-08-17T06:41:00,mcc,57.73
2023-08-17T06:42:00,mcc,57.75
2023-08-17T06:43:00,mcc,58.62
2023-08-17T06:44:00,mcc,69.65
2023-08-17T06:45:00,mcc,58.46
2023-08-17T06:46:00,mcc,60.20
2023-08-17T06:47:00,mcc,52.28
2023-08-17T06:48:00,mcc,51.98
2023-08-17T06:49:00,mcc,59.95
2023-08-17T06:50:00,mcc,53.60
2023-08-17T06:51:00,mcc,54.41
2023-08-17T06:52:00,mcc,53.33
2023-08-17T06:53:00,mcc,61.25
2023-08-17T06:54:00,mcc,60.57
2023-08-17T06:55:00,mcc,52.93
2023-08-17T06:56:00,mcc,52.58
2023-08-17T06:57:00,mcc,52.64
2023-08-17T06:58:00,mcc,51.47
2023-08-17T06:59:00,mcc,59.57
2023-08-17T07:00:00,mcc,57.54
2023-08-17T07:01:00,mcc,62.09
2023-08-17T07:02:00,mcc,52.78
2023-08-17T07:03:00,mcc,63.41
2023-08-17T07:04:00,mcc,54.43
2023-08-17T07:05:00,mcc,54.82
2023-08-17T07:06:00,mcc,54.20
2023-08-17T07:07:00,mcc,54.05
2023-08-17T07:08:00,mcc,53.97
2023-08-17T07:09:00,mcc,52.62
2023-08-17T07:10:00,mcc,62.56
2023-08-17T07:11:00,mcc,62.64
2023-08-17T07:12:00,mcc,55.74
2023-08-17T07:13:00,mcc,51.97
2023-08-17T07:14:00,mcc,51.05
2023-08-17T07:15:00,mcc,54.45
2023-08-17T07:16:00,mcc,62.32
2023-08-17T07:17:00,mcc,55.39
2023-08-17T07:18:00,mcc,56.17
2023-08-17T07:19:00,mcc,54.23
2023-08-17T07:20:00,mcc,53.58
2023-08-17T07:21:00,mcc,70.60
2023-08-17T07:22:00,mcc,56.72
2023-08-17T07:23:00,mcc,57.02
2023-08-17T07:24:00,mcc,58.65
2023-08-17T07:25:00,mcc,55.92
2023-08-17T07:26:00,mcc,55.51
2023-08-17T07:27:00,mcc,56.28
2023-08-17T07:28:00,mcc,55.72
2023-08-17T07:29:00,mcc,63.11
2023-08-17T07:30:00,mcc,63.00
2023-08-17T07:31:00,mcc,64.42
2023-08-17T07:32:00,mcc,56.99
2023-08-17T07:33:00,mcc,55.15
2023-08-17T07:34:00,mcc,55.25
2023-08-17T07:35:00,mcc,54.30
2023-08-17T07:36:00,mcc,52.51
2023-08-17T07:37:00,mcc,55.49
2023-08-17T07:38:00,mcc,56.67
2023-08-17T07:39:00,mcc,65.67
2023-08-17T07:40:00,mcc,57.79
2023-08-17T07:41:00,mcc,57.15
2023-08-17T07:42:00,mcc,56.69
2023-08-17T07:43:00,mcc,57.05
2023-08-17T07:44:00,mcc,65.23
2023-08-17T07:45:00,mcc,59.02
2023-08-17T07:46:00,mcc,61.15
2023-08-17T07:47:00,mcc,59.54
2023-08-17T07:48:00,mcc,56.68
2023-08-17T07:49:00,mcc,56.94
2023-08-17T07:50:00,mcc,65.58
2023-08-17T07:51:00,mcc,66.37
2023-08-17T07:52:00,mcc,65.19
2023-08-17T07:53:00,mcc,65.16
2023-08-17T07:54:00,mcc,66.97
2023-08-17T07:55:00,mcc,56.24
2023-08-17T07:56:00,mcc,64.52
2023-08-17T07:57:00,mcc,65.27
2023-08-17T07:58:00,mcc,55.84
2023-08-17T07:59:00,mcc,57.62
2023-08-17T08:00:00,mcc,58.66
2023-08-17T08:01:00,mcc,57.59
2023-08-17T08:02:00,mcc,62.86
2023-08-17T08:03:00,mcc,54.08
2023-08-17T08:04:00,mcc,53.71
2023-08-17T08:05:00,mcc,54.21
2023-08-17T08:06:00,mcc,55.89
2023-08-17T08:07:00,mcc,57.69
2023-08-17T08:08:00,mcc,63.69
2023-08-17T08:09:00,mcc,58.45
2023-08-17T08:10:00,mcc,58.41
2023-08-17T08:11:00,mcc,59.16
2023-08-17T08:12:00,mcc,61.90
2023-08-17T08:13:00,mcc,61.34
2023-08-17T08:14:00,mcc,70.28
2023-08-17T08:15:00,mcc,78.17
2023-08-17T08:16:00,mcc,70.10
2023-08-17T08:17:00,mcc,68.37
2023-08-17T08:18:00,mcc,67.67
2023-08-17T08:19:00,mcc,67.38
2023-08-17T08:20:00,mcc,60.89
2023-08-17T08:21:00,mcc,57.56
2023-08-17T08:22:00,mcc,58.73
2023-08-17T08:23:00,mcc,58.75
2023-08-17T08:24:00,mcc,58.98
2023-08-17T08:25:00,mcc,66.59
2023-08-17T08:26:00,mcc,66.48
2023-08-17T08:27:00,mcc,58.54
2023-08-17T08:28:00,mcc,57.62
2023-08-17T08:29:00,mcc,57.78
2023-08-17T08:30:00,mcc,58.76
2023-08-17T08:31:00,mcc,58.98
2023-08-17T08:32:00,mcc,67.16
2023-08-17T08:33:00,mcc,65.73
2023-08-17T08:34:00,mcc,60.45
2023-08-17T08:35:00,mcc,60.80
2023-08-17T08:36:00,mcc,59.86
2023-08-17T08:37:00,mcc,62.49
2023-08-17T08:38:00,mcc,69.23
2023-08-17T08:39:00,mcc,60.54
2023-08-17T08:40:00,mcc,61.44
2023-08-17T08:41:00,mcc,59.54
2023-08-17T08:42:00,mcc,61.94
2023-08-17T08:43:00,mcc,69.81
2023-08-17T08:44:00,mcc,69.87
2023-08-17T08:45:00,mcc,64.08
2023-08-17T08:46:00,mcc,65.27
2023-08-17T08:47:00,mcc,65.36
2023-08-17T08:48:00,mcc,64.85
2023-08-17T08:49:00,mcc,73.56
2023-08-17T08:50:00,mcc,65.13
2023-08-17T08:51:00,mcc,72.60
2023-08-17T08:52:00,mcc,73.01
2023-08-17T08:53:00,mcc,61.47
2023-08-17T08:54:00,mcc,61.59
2023-08-17T08:55:00,mcc,69.29
2023-08-17T08:56:00,mcc,61.79
2023-08-17T08:57:00,mcc,62.01
2023-08-17T08:58:00,mcc,61.41
2023-08-17T08:59:00,mcc,60.51
2023-08-17T09:00:00,mcc,59.58
2023-08-17T09:01:00,mcc,67.55
2023-08-17T09:02:00,mcc,60.14
2023-08-17T09:03:00,mcc,61.50
2023-08-17T09:04:00,mcc,64.40
2023-08-17T09:05:00,mcc,63.24
2023-08-17T09:06:00,mcc,62.94
2023-08-17T09:07:00,mcc,69.75
2023-08-17T09:08:00,mcc,62.18
2023-08-17T09:09:00,mcc,62.67
2023-08-17T09:10:00,mcc,64.12
2023-08-17T09:11:00,mcc,62.40
2023-08-17T09:12:00,mcc,61.35
2023-08-17T09:13:00,mcc,70.98
2023-08-17T09:14:00,mcc,63.12
2023-08-17T09:15:00,mcc,64.84
2023-08-17T09:16:00,mcc,64.78
2023-08-17T09:17:00,mcc,62.45
2023-08-17T09:18:00,mcc,61.51
2023-08-17T09:19:00,mcc,61.12
2023-08-17T09:20:00,mcc,61.94
2023-08-17T09:21:00,mcc,62.99
2023-08-17T09:22:00,mcc,65.06
2023-08-17T09:23:00,mcc,61.23
2023-08-17T09:24:00,mcc,62.49
2023-08-17T09:25:00,mcc,63.83
2023-08-17T09:26:00,mcc,62.89
2023-08-17T09:27:00,mcc,63.28
2023-08-17T09:28:00,mcc,62.26
2023-08-17T09:29:00,mcc,69.24
2023-08-17T09:30:00,mcc,60.56
2023-08-17T09:31:00,mcc,59.97
2023-08-17T09:32:00,mcc,59.33
2023-08-17T09:33:00,mcc,59.46
2023-08-17T09:34:00,mcc,60.15
2023-08-17T09:35:00,mcc,61.98
2023-08-17T09:36:00,mcc,59.89
2023-08-17T09:37:00,mcc,58.94
2023-08-17T09:38:00,mcc,58.42
2023-08-17T09:39:00,mcc,58.84
2023-08-17T09:40:00,mcc,58.43
2023-08-17T09:41:00,mcc,59.79
2023-08-17T09:42:00,mcc,59.63
2023-08-17T09:43:00,mcc,59.76
2023-08-17T09:44:00,mcc,60.84
2023-08-17T09:45:00,mcc,62.87
2023-08-17T09:46:00,mcc,62.87
2023-08-17T09:47:00,mcc,70.94
2023-08-17T09:48:00,mcc,62.26
2023-08-17T09:49:00,mcc,62.25
2023-08-17T09:50:00,mcc,62.14
2023-08-17T09:51:00,mcc,62.21
2023-08-17T09:52:00,mcc,62.29
2023-08-17T09:53:00,mcc,66.11
2023-08-17T09:54:00,mcc,66.03
2023-08-17T09:55:00,mcc,67.52
2023-08-17T09:56:00,mcc,64.55
2023-08-17T09:57:00,mcc,64.94
2023-08-17T09:58:00,mcc,65.37
2023-08-17T09:59:00,mcc,66.08
2023-08-17T10:00:00,mcc,64.35
2023-08-17T10:01:00,mcc,63.80
2023-08-17T10:02:00,mcc,62.00
2023-08-17T10:03:00,mcc,62.26
2023-08-17T10:04:00,mcc,62.05
2023-08-17T10:05:00,mcc,71.55
2023-08-17T10:06:00,mcc,64.09
2023-08-17T10:07:00,mcc,61.23
2023-08-17T10:08:00,mcc,60.10
2023-08-17T10:09:00,mcc,58.95
2023-08-17T10:10:00,mcc,58.96
2023-08-17T10:11:00,mcc,58.58
2023-08-17T10:12:00,mcc,58.16
2023-08-17T10:13:00,mcc,59.12
2023-08-17T10:14:00,mcc,59.60
2023-08-17T10:15:00,mcc,59.54
2023-08-17T10:16:00,mcc,59.44
2023-08-17T10:17:00,mcc,61.43
2023-08-17T10:18:00,mcc,58.57
2023-08-17T10:19:00,mcc,59.90
2023-08-17T10:20:00,mcc,59.10
2023-08-17T10:21:00,mcc,57.67
2023-08-17T10:22:00,mcc,56.78
2023-08-17T10:23:00,mcc,59.71
2023-08-17T10:24:00,mcc,60.76
2023-08-17T10:25:00,mcc,64.10
2023-08-17T10:26:00,mcc,62.70
2023-08-17T10:27:00,mcc,64.42
2023-08-17T10:28:00,mcc,64.44
2023-08-17T10:29:00,mcc,65.98
2023-08-17T10:30:00,mcc,81.46
2023-08-17T10:31:00,mcc,73.84
2023-08-17T10:32:00,mcc,66.47
2023-08-17T10:33:00,mcc,66.51
2023-08-17T10:34:00,mcc,69.36
2023-08-17T10:35:00,mcc,70.38
2023-08-17T10:36:00,mcc,69.69
2023-08-17T10:37:00,mcc,76.89
2023-08-17T10:38:00,mcc,66.22
2023-08-17T10:39:00,mcc,63.70
2023-08-17T10:40:00,mcc,64.06
2023-08-17T10:41:00,mcc,64.34
2023-08-17T10:42:00,mcc,63.17
2023-08-17T10:43:00,mcc,70.25
2023-08-17T10:44:00,mcc,59.86
2023-08-17T10:45:00,mcc,60.31
2023-08-17T10:46:00,mcc,61.33
2023-08-17T10:47:00,mcc,61.30
2023-08-17T10:48:00,mcc,61.95
2023-08-17T10:49:00,mcc,69.30
2023-08-17T10:50:00,mcc,60.84
2023-08-17T10:51:00,mcc,77.78
2023-08-17T10:52:00,mcc,61.82
2023-08-17T10:53:00,mcc,60.52
2023-08-17T10:54:00,mcc,60.06
2023-08-17T10:55:00,mcc,69.91
2023-08-17T10:56:00,mcc,69.11
2023-08-17T10:57:00,mcc,68.94
2023-08-17T10:58:00,mcc,69.11
2023-08-17T10:59:00,mcc,70.11
2023-08-17T11:00:00,mcc,79.42
2023-08-17T11:01:00,mcc,62.50
2023-08-17T11:02:00,mcc,63.46
2023-08-17T11:03:00,mcc,65.59
2023-08-17T11:04:00,mcc,75.66
2023-08-17T11:05:00,mcc,64.54
2023-08-17T11:06:00,mcc,73.32
2023-08-17T11:07:00,mcc,67.87
2023-08-17T11:08:00,mcc,67.69
2023-08-17T11:09:00,mcc,80.48
2023-08-17T11:10:00,mcc,64.73
2023-08-17T11:11:00,mcc,65.70
2023-08-17T11:12:00,mcc,64.04
2023-08-17T11:13:00,mcc,61.62
2023-08-17T11:14:00,mcc,66.78
2023-08-17T11:15:00,mcc,69.55
2023-08-17T11:16:00,mcc,66.27
2023-08-17T11:17:00,mcc,65.45
2023-08-17T11:18:00,mcc,77.92
2023-08-17T11:19:00,mcc,62.38
2023-08-17T11:20:00,mcc,62.10
2023-08-17T11:21:00,mcc,77.09
2023-08-17T11:22:00,mcc,62.90
2023-08-17T11:23:00,mcc,62.39
2023-08-17T11:24:00,mcc,66.03
2023-08-17T11:25:00,mcc,65.31
2023-08-17T11:26:00,mcc,64.67
2023-08-17T11:27:00,mcc,64.64
2023-08-17T11:28:00,mcc,61.42
2023-08-17T11:29:00,mcc,60.79
2023-08-17T11:30:00,mcc,64.00
2023-08-17T11:31:00,mcc,61.44
2023-08-17T11:32:00,mcc,62.63
2023-08-17T11:33:00,mcc,63.75
2023-08-17T11:34:00,mcc,64.98
2023-08-17T11:35:00,mcc,65.95
2023-08-17T11:36:00,mcc,65.36
2023-08-17T11:37:00,mcc,74.50
2023-08-17T11:38:00,mcc,65.30
2023-08-17T11:39:00,mcc,65.16
2023-08-17T11:40:00,mcc,64.66
2023-08-17T11:41:00,mcc,80.94
2023-08-17T11:42:00,mcc,63.39
2023-08-17T11:43:00,mcc,61.97
2023-08-17T11:44:00,mcc,63.19
2023-08-17T11:45:00,mcc,63.42
2023-08-17T11:46:00,mcc,65.13
2023-08-17T11:47:00,mcc,65.60
2023-08-17T11:48:00,mcc,63.88
2023-08-17T11:49:00,mcc,64.26
2023-08-17T11:50:00,mcc,73.25
2023-08-17T11:51:00,mcc,64.59
2023-08-17T11:52:00,mcc,64.75
2023-08-17T11:53:00,mcc,62.24
2023-08-17T11:54:00,mcc,63.55
2023-08-17T11:55:00,mcc,72.71
2023-08-17T11:56:00,mcc,63.55
2023-08-17T11:57:00,mcc,63.85
2023-08-17T11:58:00,mcc,62.92
2023-08-17T11:59:00,mcc,63.22
2023-08-17T12:00:00,mcc,63.98
2023-08-17T12:01:00,mcc,63.24
2023-08-17T12:02:00,mcc,61.05
2023-08-17T12:03:00,mcc,61.14
2023-08-17T12:04:00,mcc,62.22
2023-08-17T12:05:00,mcc,62.06
2023-08-17T12:06:00,mcc,61.44
2023-08-17T12:07:00,mcc,59.79
2023-08-17T12:08:00,mcc,78.45
2023-08-17T12:09:00,mcc,79.26
2023-08-17T12:10:00,mcc,80.53
2023-08-17T12:11:00,mcc,86.80
2023-08-17T12:12:00,mcc,71.91
2023-08-17T12:13:00,mcc,71.10
2023-08-17T12:14:00,mcc,71.17
2023-08-17T12:15:00,mcc,71.56
2023-08-17T12:16:00,mcc,73.65
2023-08-17T12:17:00,mcc,87.80
2023-08-17T12:18:00,mcc,72.90
2023-08-17T12:19:00,mcc,74.45
2023-08-17T12:20:00,mcc,73.97
2023-08-17T12:21:00,mcc,74.64
2023-08-17T12:22:00,mcc,89.23
2023-08-17T12:23:00,mcc,76.31
2023-08-17T12:24:00,mcc,73.73
2023-08-17T12:25:00,mcc,73.30
2023-08-17T12:26:00,mcc,73.57
2023-08-17T12:27:00,mcc,72.60
2023-08-17T12:28:00,mcc,71.17
2023-08-17T12:29:00,mcc,68.92
2023-08-17T12:30:00,mcc,69.82
2023-08-17T12:31:00,mcc,72.59
2023-08-17T12:32:00,mcc,71.45
2023-08-17T12:33:00,mcc,69.02
2023-08-17T12:34:00,mcc,70.67
2023-08-17T12:35:00,mcc,69.64
2023-08-17T12:36:00,mcc,69.90
2023-08-17T12:37:00,mcc,68.01
2023-08-17T12:38:00,mcc,67.11
2023-08-17T12:39:00,mcc,68.30
2023-08-17T12:40:00,mcc,69.00
2023-08-17T12:41:00,mcc,67.57
2023-08-17T12:42:00,mcc,69.19
2023-08-17T12:43:00,mcc,70.13
2023-08-17T12:44:00,mcc,70.96
2023-08-17T12:45:00,mcc,70.42
2023-08-17T12:46:00,mcc,76.00
2023-08-17T12:47:00,mcc,72.87
2023-08-17T12:48:00,mcc,71.55
2023-08-17T12:49:00,mcc,72.43
2023-08-17T12:50:00,mcc,80.47
2023-08-17T12:51:00,mcc,72.97
2023-08-17T12:52:00,mcc,71.97
2023-08-17T12:53:00,mcc,74.34
2023-08-17T12:54:00,mcc,76.65
2023-08-17T12:55:00,mcc,73.80
2023-08-17T12:56:00,mcc,72.64
2023-08-17T12:57:00,mcc,72.04
2023-08-17T12:58:00,mcc,71.30
2023-08-17T12:59:00,mcc,69.50
2023-08-17T13:00:00,mcc,70.21
2023-08-17T13:01:00,mcc,73.39
2023-08-17T13:02:00,mcc,73.56
2023-08-17T13:03:00,mcc,68.19
2023-08-17T13:04:00,mcc,68.98
2023-08-17T13:05:00,mcc,69.55
2023-08-17T13:06:00,mcc,69.88
2023-08-17T13:07:00,mcc,68.11
2023-08-17T13:08:00,mcc,76.01
2023-08-17T13:09:00,mcc,69.05
2023-08-17T13:10:00,mcc,65.62
2023-08-17T13:11:00,mcc,65.42
2023-08-17T13:12:00,mcc,64.38
2023-08-17T13:13:00,mcc,66.53
2023-08-17T13:14:00,mcc,65.11
2023-08-17T13:15:00,mcc,63.71
2023-08-17T13:16:00,mcc,66.61
2023-08-17T13:17:00,mcc,65.26
2023-08-17T13:18:00,mcc,62.95